Flood From: 24-02-2018 06:00 Until: 25-02-2018 06:00 warning for: Flood Level: Yellow info button

Although rather usual in this region, locally or potentially dangerous phenomena are expected. (such as local winds, summer thunderstorms, rising streams or high waves) Be aware and pay attention to the latest weather updates, especially if you carry out activities exposed to weather or close to a stream or shoreline. 


Meteo18 Weather Cam more information Meteo18 Weather Cam


Thunder radar more information blitzortung!


Rain radar more information rain snow radar


Visit our other weather sites:

Template documentation
and downloads

And another site



Weather Underground History page Text

Daily Summary for June 18, 2016 Units:  Metric    English   Both
« Previous Day
Next Day »
Daily Weekly Monthly Yearly Custom
  High: Low: Average:
Temperature: -17.8 °C -11.4 °C -8.8 °C
Dew Point: -17.8 °C -11.8 °C -11 °C
Humidity: Humidity % 52 % 79 %
Wind Speed: 0 km/h 0 km/h 1.1 km/h
Wind Gust: 0 km/h - -
Wind:- - South
Pressure: 0 hPa 34371.3 hPa -
Precipitation: 7.62 mm    
Historical Graphs
 
 
Tabular Data for June 18, 2016
Time Temperature Dew Point Pressure Wind Wind Speed Wind Gust Humidity Rainfall Rate (Hourly)
-17.8 °C -17.8 °C 0 hPa Calm     Humidity % 0 mm
00:02 -11.3 °C -11.6 °C 34371.3 hPa Calm     96 % 0 mm
00:12 -11.4 °C -11.8 °C 34371.3 hPa Calm     96 % 0 mm
00:17 -11.4 °C -11.8 °C 34371.3 hPa Calm     96 % 0 mm
00:22 -11.4 °C -11.7 °C 34371.3 hPa Calm     97 % 0 mm
00:27 -11.3 °C -11.6 °C 34371.3 hPa Calm     97 % 0 mm
00:32 -11.2 °C -11.4 °C 34371.3 hPa Calm     97 % 0 mm
00:42 -11.2 °C -11.4 °C 34384.8 hPa Calm     97 % 0 mm
00:47 -11.2 °C -11.4 °C 34384.8 hPa Calm     97 % 0 mm
00:52 -11.2 °C -11.4 °C 34384.8 hPa Calm     97 % 0 mm
01:02 -11.2 °C -11.5 °C 34384.8 hPa Calm     96 % 0 mm
01:07 -11.2 °C -11.4 °C 34384.8 hPa Calm     97 % 7.62 mm
01:17 -11.2 °C -11.4 °C 34384.8 hPa Calm     97 % 7.62 mm
01:22 -11.2 °C -11.4 °C 34371.3 hPa Calm     97 % 7.62 mm
01:27 -11.2 °C -11.5 °C 34384.8 hPa Calm     97 % 7.62 mm
01:32 -11.2 °C -11.5 °C 34384.8 hPa WSW 2.6 km/h   97 % 7.62 mm
01:37 -11.2 °C -11.6 °C 34384.8 hPa Calm   5.1 km/h 96 % 7.62 mm
01:42 -11.2 °C -11.6 °C 34384.8 hPa Calm   5.1 km/h 96 % 7.62 mm
01:47 -11.3 °C -11.6 °C 34384.8 hPa Calm   5.1 km/h 96 % 7.62 mm
01:52 -11.3 °C -11.6 °C 34384.8 hPa Calm   5.1 km/h 96 % 7.62 mm
01:57 -11.3 °C -11.6 °C 34384.8 hPa Calm   2.6 km/h 97 % 7.62 mm
02:02 -11.2 °C -11.5 °C 34384.8 hPa Calm   2.6 km/h 97 % 7.62 mm
02:07 -11.2 °C -11.5 °C 34384.8 hPa Calm   2.6 km/h 97 % 0 mm
02:12 -11.2 °C -11.5 °C 34384.8 hPa Calm   5.1 km/h 97 % 0 mm
02:17 -11.2 °C -11.5 °C 34384.8 hPa Calm   5.1 km/h 97 % 0 mm
02:22 -11.2 °C -11.5 °C 34384.8 hPa Calm   5.1 km/h 97 % 0 mm
02:27 -11.2 °C -11.5 °C 34384.8 hPa Calm   2.6 km/h 97 % 0 mm
02:32 -11.3 °C -11.6 °C 34384.8 hPa SW 5.1 km/h 7.7 km/h 97 % 0 mm
02:37 -11.2 °C -11.5 °C 34395 hPa SW 2.6 km/h 7.7 km/h 97 % 0 mm
02:42 -11.2 °C -11.5 °C 34395 hPa SW 7.7 km/h 7.7 km/h 97 % 0 mm
02:47 -11.2 °C -11.4 °C 34395 hPa WSW 2.6 km/h 7.7 km/h 97 % 0 mm
02:52 -11.1 °C -11.4 °C 34384.8 hPa Calm   7.7 km/h 97 % 0 mm
02:57 -11.1 °C -11.4 °C 34395 hPa Calm   7.7 km/h 97 % 0 mm
03:02 -11.1 °C -11.4 °C 34395 hPa WSW 7.7 km/h 7.7 km/h 97 % 0 mm
03:07 -11.1 °C -11.3 °C 34395 hPa SW 2.6 km/h 7.7 km/h 97 % 0 mm
03:12 -11.1 °C -11.3 °C 34395 hPa Calm   12.9 km/h 97 % 0 mm
03:17 -11.1 °C -11.3 °C 34384.8 hPa Calm   12.9 km/h 97 % 0 mm
03:22 -11.1 °C -11.3 °C 34395 hPa Calm   12.9 km/h 97 % 0 mm
03:27 -11.1 °C -11.3 °C 34395 hPa WSW 2.6 km/h 10.3 km/h 97 % 0 mm
03:32 -11.1 °C -11.3 °C 34384.8 hPa WSW 2.6 km/h 10.3 km/h 97 % 0 mm
03:37 -11 °C -11.3 °C 34395 hPa Calm   7.7 km/h 97 % 0 mm
03:42 -11 °C -11.3 °C 34384.8 hPa WSW 2.6 km/h 7.7 km/h 97 % 0 mm
03:47 -11.1 °C -11.3 °C 34384.8 hPa Calm   7.7 km/h 97 % 0 mm
03:52 -11.1 °C -11.3 °C 34384.8 hPa Calm   2.6 km/h 97 % 0 mm
03:57 -11 °C -11.3 °C 34384.8 hPa Calm   2.6 km/h 97 % 0 mm
04:02 -11 °C -11.3 °C 34395 hPa Calm   2.6 km/h 97 % 0 mm
04:07 -10.9 °C -11.2 °C 34395 hPa Calm   2.6 km/h 97 % 0 mm
04:12 -10.9 °C -11.2 °C 34395 hPa Calm   7.7 km/h 97 % 0 mm
04:17 -10.9 °C -11.2 °C 34395 hPa WSW 2.6 km/h 7.7 km/h 97 % 0 mm
04:22 -10.9 °C -11.2 °C 34395 hPa Calm   7.7 km/h 97 % 0 mm
04:27 -10.9 °C -11.2 °C 34395 hPa Calm   7.7 km/h 96 % 0 mm
04:32 -10.9 °C -11.2 °C 34395 hPa Calm   5.1 km/h 96 % 0 mm
04:37 -10.9 °C -11.2 °C 34395 hPa Calm   5.1 km/h 96 % 0 mm
04:42 -10.8 °C -11.2 °C 34395 hPa Calm   5.1 km/h 96 % 0 mm
04:47 -10.9 °C -11.2 °C 34405.1 hPa WSW 5.1 km/h 10.3 km/h 96 % 0 mm
04:52 -10.9 °C -11.2 °C 34405.1 hPa Calm   10.3 km/h 96 % 0 mm
04:57 -10.9 °C -11.2 °C 34405.1 hPa WSW 2.6 km/h 10.3 km/h 96 % 0 mm
05:02 -10.9 °C -11.2 °C 34395 hPa Calm   10.3 km/h 96 % 0 mm
05:12 -10.9 °C -11.2 °C 34405.1 hPa Calm   10.3 km/h 96 % 0 mm
05:17 -10.9 °C -11.2 °C 34405.1 hPa WSW 2.6 km/h 12.9 km/h 96 % 0 mm
05:27 -10.9 °C -11.3 °C 34405.1 hPa West 2.6 km/h 12.9 km/h 96 % 0 mm
05:32 -10.9 °C -11.3 °C 34405.1 hPa Calm   5.1 km/h 96 % 0 mm
05:37 -10.9 °C -11.2 °C 34405.1 hPa Calm   5.1 km/h 96 % 0 mm
05:42 -10.9 °C -11.2 °C 34405.1 hPa Calm   5.1 km/h 96 % 0 mm
05:47 -10.9 °C -11.2 °C 34405.1 hPa Calm   5.1 km/h 96 % 0 mm
05:52 -10.9 °C -11.2 °C 34418.7 hPa Calm   2.6 km/h 96 % 0 mm
05:57 -10.9 °C -11.2 °C 34418.7 hPa Calm   5.1 km/h 96 % 0 mm
06:02 -10.8 °C -11.2 °C 34418.7 hPa Calm   5.1 km/h 96 % 0 mm
06:12 -10.8 °C -11.1 °C 34418.7 hPa Calm   2.6 km/h 96 % 0 mm
06:17 -10.8 °C -11.2 °C 34418.7 hPa Calm     96 % 0 mm
06:22 -10.8 °C -11.1 °C 34428.8 hPa Calm     96 % 0 mm
06:32 -10.8 °C -11.1 °C 34428.8 hPa Calm     96 % 0 mm
06:42 -10.7 °C -11.1 °C 34428.8 hPa Calm     96 % 0 mm
06:47 -10.7 °C -11.1 °C 34428.8 hPa Calm     96 % 0 mm
06:52 -10.7 °C -11.1 °C 34442.4 hPa Calm     96 % 0 mm
06:57 -10.7 °C -11.1 °C 34442.4 hPa Calm     96 % 0 mm
07:02 -10.8 °C -11.1 °C 34442.4 hPa Calm     96 % 0 mm
07:12 -10.8 °C -11.1 °C 34442.4 hPa Calm   5.1 km/h 96 % 0 mm
07:17 -10.8 °C -11.1 °C 34442.4 hPa Calm   5.1 km/h 96 % 0 mm
07:22 -10.8 °C -11.1 °C 34452.6 hPa Calm   2.6 km/h 96 % 0 mm
07:27 -10.8 °C -11.1 °C 34452.6 hPa Calm   5.1 km/h 96 % 0 mm
07:32 -10.8 °C -11.1 °C 34452.6 hPa Calm   5.1 km/h 96 % 0 mm
07:37 -10.8 °C -11.1 °C 34452.6 hPa Calm   5.1 km/h 96 % 0 mm
07:42 -10.8 °C -11.1 °C 34452.6 hPa Calm   2.6 km/h 96 % 0 mm
07:47 -10.8 °C -11.1 °C 34462.7 hPa Calm   5.1 km/h 96 % 0 mm
07:52 -10.8 °C -11.2 °C 34462.7 hPa Calm   5.1 km/h 95 % 0 mm
07:57 -10.8 °C -11.2 °C 34462.7 hPa Calm   5.1 km/h 95 % 0 mm
08:02 -10.8 °C -11.2 °C 34462.7 hPa Calm   2.6 km/h 95 % 0 mm
08:12 -10.6 °C -11.1 °C 34462.7 hPa Calm   2.6 km/h 95 % 0 mm
08:17 -10.6 °C -11 °C 34462.7 hPa SW 2.6 km/h 5.1 km/h 95 % 0 mm
08:22 -10.5 °C -11 °C 34462.7 hPa SW 2.6 km/h 7.7 km/h 94 % 0 mm
08:32 -10.4 °C -11.1 °C 34462.7 hPa SW 2.6 km/h 7.7 km/h 93 % 0 mm
08:37 -10.4 °C -11 °C 34462.7 hPa WSW 2.6 km/h 7.7 km/h 93 % 0 mm
08:42 -10.4 °C -11 °C 34462.7 hPa Calm   7.7 km/h 93 % 0 mm
08:47 -10.4 °C -11 °C 34476.3 hPa WSW 2.6 km/h 10.3 km/h 93 % 0 mm
08:52 -10.2 °C -10.8 °C 34476.3 hPa Calm   10.3 km/h 93 % 0 mm
08:57 -10.1 °C -10.8 °C 34476.3 hPa West 2.6 km/h 7.7 km/h 92 % 0 mm
09:02 -10.2 °C -10.9 °C 34476.3 hPa WSW 2.6 km/h 7.7 km/h 91 % 0 mm
09:12 -10.2 °C -11 °C 34486.4 hPa Calm   10.3 km/h 91 % 0 mm
09:17 -10.2 °C -10.9 °C 34486.4 hPa Calm   10.3 km/h 92 % 0 mm
09:22 -10.1 °C -10.8 °C 34496.6 hPa WSW 5.1 km/h 7.7 km/h 92 % 0 mm
09:32 -9.9 °C -10.8 °C 34496.6 hPa West 5.1 km/h 7.7 km/h 90 % 0 mm
09:37 -9.9 °C -10.9 °C 34496.6 hPa Calm   10.3 km/h 89 % 0 mm
09:42 -9.7 °C -10.6 °C 34496.6 hPa Calm   12.9 km/h 90 % 0 mm
09:47 -9.6 °C -10.7 °C 34496.6 hPa Calm   12.9 km/h 88 % 0 mm
09:52 -9.6 °C -10.7 °C 34496.6 hPa Calm   12.9 km/h 87 % 0 mm
09:57 -9.3 °C -10.6 °C 34496.6 hPa Calm   10.3 km/h 87 % 0 mm
10:02 -9.3 °C -10.6 °C 34496.6 hPa Calm   10.3 km/h 87 % 0 mm
10:12 -9.2 °C -10.6 °C 34496.6 hPa WSW 2.6 km/h 5.1 km/h 85 % 0 mm
10:17 -9.3 °C -10.5 °C 34496.6 hPa SW 5.1 km/h 10.3 km/h 87 % 0 mm
10:22 -9.2 °C -10.6 °C 34496.6 hPa WSW 2.6 km/h 10.3 km/h 85 % 0 mm
10:27 -9.2 °C -10.6 °C 34510.1 hPa WSW 5.1 km/h 15.6 km/h 85 % 0 mm
10:32 -9 °C -10.4 °C 34510.1 hPa WSW 2.6 km/h 15.6 km/h 85 % 0 mm
10:37 -8.7 °C -10.5 °C 34510.1 hPa WNW 5.1 km/h 15.6 km/h 81 % 0 mm
10:47 -8.9 °C -10.7 °C 34510.1 hPa Calm   15.6 km/h 82 % 0 mm
10:52 -8.8 °C -10.4 °C 34510.1 hPa Calm   15.6 km/h 83 % 0 mm
10:57 -8.7 °C -10.6 °C 34510.1 hPa Calm   10.3 km/h 81 % 0 mm
11:02 -8.5 °C -10.2 °C 34510.1 hPa SW 2.6 km/h 7.7 km/h 82 % 0 mm
11:07 -8.4 °C -10.8 °C 34510.1 hPa Calm   12.9 km/h 76 % 0 mm
11:12 -8.2 °C -10.4 °C 34510.1 hPa WSW 5.1 km/h 12.9 km/h 78 % 0 mm
11:17 -8.1 °C -10.3 °C 34510.1 hPa West 5.1 km/h 12.9 km/h 78 % 0 mm
11:22 -8.1 °C -10.5 °C 34520.3 hPa WSW 5.1 km/h 10.3 km/h 76 % 0 mm
11:27 -7.8 °C -10.3 °C 34520.3 hPa Calm   10.3 km/h 75 % 0 mm
11:32 -7.8 °C -10.4 °C 34520.3 hPa SSW 2.6 km/h 10.3 km/h 74 % 0 mm
11:37 -7.7 °C -10.4 °C 34520.3 hPa West 5.1 km/h 10.3 km/h 73 % 0 mm
11:42 -7.4 °C -10.4 °C 34520.3 hPa Calm   10.3 km/h 71 % 0 mm
11:47 -7.3 °C -10.3 °C 34520.3 hPa Calm   10.3 km/h 71 % 0 mm
11:52 -7.1 °C -10.6 °C 34520.3 hPa SW 2.6 km/h 12.9 km/h 67 % 0 mm
11:57 -7 °C -10.7 °C 34520.3 hPa SW 5.1 km/h 12.9 km/h 65 % 0 mm
12:02 -7.2 °C -10.8 °C 34520.3 hPa Calm   12.9 km/h 66 % 0 mm
12:12 -7.3 °C -10.7 °C 34520.3 hPa WSW 5.1 km/h 10.3 km/h 68 % 0 mm
12:17 -7.1 °C -10.3 °C 34520.3 hPa East 2.6 km/h 10.3 km/h 69 % 0 mm
12:22 -7.1 °C -10.9 °C 34520.3 hPa Calm   10.3 km/h 64 % 0 mm
12:27 -6.8 °C -10.4 °C 34520.3 hPa SW 10.3 km/h 10.3 km/h 66 % 0 mm
12:32 -6.9 °C -10.8 °C 34520.3 hPa Calm   12.9 km/h 64 % 0 mm
12:37 -7 °C -10.7 °C 34520.3 hPa Calm   12.9 km/h 65 % 0 mm
12:42 -6.8 °C -10.8 °C 34520.3 hPa Calm   12.9 km/h 63 % 0 mm
12:47 -6.6 °C -10.2 °C 34520.3 hPa WSW 2.6 km/h 10.3 km/h 66 % 0 mm
12:52 -6.3 °C -10.9 °C 34520.3 hPa East 2.6 km/h 12.9 km/h 59 % 0 mm
12:57 -6.2 °C -10.6 °C 34520.3 hPa West 2.6 km/h 12.9 km/h 61 % 0 mm
13:02 -6.2 °C -10.7 °C 34520.3 hPa WSW 2.6 km/h 15.6 km/h 60 % 0 mm
13:07 -6.3 °C -11.1 °C 34520.3 hPa Calm   15.6 km/h 58 % 0 mm
13:12 -6.3 °C -10.4 °C 34520.3 hPa Calm   12.9 km/h 62 % 0 mm
13:17 -6.2 °C -10.8 °C 34520.3 hPa SW 5.1 km/h 15.6 km/h 59 % 0 mm
13:22 -6.1 °C -10.9 °C 34520.3 hPa West 2.6 km/h 15.6 km/h 58 % 0 mm
13:27 -5.9 °C -10.9 °C 34520.3 hPa NNE 2.6 km/h 15.6 km/h 56 % 0 mm
13:32 -6.2 °C -11.1 °C 34520.3 hPa Calm   12.9 km/h 57 % 0 mm
13:37 -6 °C -11.1 °C 34520.3 hPa WSW 5.1 km/h 12.9 km/h 56 % 0 mm
13:42 -5.9 °C -11.3 °C 34520.3 hPa West 2.6 km/h 12.9 km/h 54 % 0 mm
13:47 -6.2 °C -11.2 °C 34520.3 hPa South 2.6 km/h 12.9 km/h 56 % 0 mm
13:57 -6.3 °C -11.3 °C 34520.3 hPa Calm   12.9 km/h 56 % 0 mm
14:02 -6.1 °C -10.6 °C 34520.3 hPa SSE 2.6 km/h 12.9 km/h 60 % 0 mm
14:07 -5.8 °C -10.6 °C 34520.3 hPa Calm   18.2 km/h 58 % 0 mm
14:12 -5.6 °C -10.7 °C 34520.3 hPa WSW 7.7 km/h 18.2 km/h 56 % 0 mm
14:17 -5.6 °C -11.3 °C 34520.3 hPa WSW 5.1 km/h 18.2 km/h 52 % 0 mm
14:22 -6 °C -10.9 °C 34520.3 hPa Calm   12.9 km/h 57 % 0 mm
14:27 -6.3 °C -11.1 °C 34520.3 hPa Calm   12.9 km/h 58 % 0 mm
14:32 -6.6 °C -11.1 °C 34533.8 hPa SW 5.1 km/h 12.9 km/h 60 % 0 mm
14:37 -6.8 °C -11.1 °C 34533.8 hPa Calm   12.9 km/h 61 % 0 mm
14:42 -7 °C -11.3 °C 34520.3 hPa East 2.6 km/h 12.9 km/h 61 % 0 mm
14:47 -6.9 °C -10.7 °C 34533.8 hPa Calm   7.7 km/h 65 % 0 mm
14:52 -6.9 °C -11.2 °C 34533.8 hPa WSW 5.1 km/h 5.1 km/h 61 % 0 mm
14:57 -6.9 °C -11.2 °C 34520.3 hPa Calm   5.1 km/h 61 % 0 mm
15:02 -6.6 °C -10.9 °C 34520.3 hPa SW 5.1 km/h 5.1 km/h 61 % 0 mm
15:07 -6.2 °C -10.6 °C 34520.3 hPa Calm   12.9 km/h 61 % 0 mm
15:12 -6.2 °C -10.8 °C 34520.3 hPa Calm   12.9 km/h 59 % 0 mm
15:17 -6.2 °C -11.1 °C 34520.3 hPa SSW 5.1 km/h 12.9 km/h 57 % 0 mm
15:22 -6.5 °C -11.1 °C 34520.3 hPa Calm   10.3 km/h 59 % 0 mm
15:27 -6.7 °C -10.9 °C 34520.3 hPa Calm   15.6 km/h 62 % 0 mm
15:32 -6.3 °C -10.9 °C 34533.8 hPa Calm   15.6 km/h 59 % 0 mm
15:42 -5.8 °C -11 °C 34520.3 hPa Calm   10.3 km/h 55 % 0 mm
15:47 -5.9 °C -11.3 °C 34520.3 hPa Calm   10.3 km/h 54 % 0 mm
15:52 -5.9 °C -11.2 °C 34520.3 hPa Calm   10.3 km/h 55 % 0 mm
15:57 -5.7 °C -10.3 °C 34520.3 hPa SW 2.6 km/h 7.7 km/h 59 % 0 mm
16:02 -5.7 °C -11.4 °C 34520.3 hPa Calm   10.3 km/h 52 % 0 mm
16:07 -5.9 °C -11 °C 34520.3 hPa ENE 2.6 km/h 10.3 km/h 56 % 0 mm
16:12 -6.3 °C -10.7 °C 34533.8 hPa Calm   10.3 km/h 61 % 0 mm
16:17 -6.4 °C -10.6 °C 34533.8 hPa NE 2.6 km/h 10.3 km/h 62 % 0 mm
16:22 -6.6 °C -11.2 °C 34533.8 hPa Calm   10.3 km/h 59 % 0 mm
16:27 -6.8 °C -11.1 °C 34533.8 hPa NE 2.6 km/h 7.7 km/h 61 % 0 mm
16:32 -6.9 °C -11.6 °C 34533.8 hPa Calm   18.2 km/h 58 % 0 mm
16:42 -6.6 °C -10.3 °C 34533.8 hPa Calm   18.2 km/h 65 % 0 mm
16:47 -6.4 °C -10.6 °C 34533.8 hPa Calm   10.3 km/h 62 % 0 mm
16:52 -6.6 °C -11 °C 34533.8 hPa Calm   12.9 km/h 60 % 0 mm
16:57 -6.8 °C -10.8 °C 34533.8 hPa Calm   12.9 km/h 63 % 0 mm
17:02 -6.9 °C -11.1 °C 34533.8 hPa NE 5.1 km/h 12.9 km/h 62 % 0 mm
17:12 -6.9 °C -11.2 °C 34533.8 hPa Calm   15.6 km/h 61 % 0 mm
17:17 -6.9 °C -10.9 °C 34533.8 hPa NE 2.6 km/h 18.2 km/h 63 % 0 mm
17:22 -6.9 °C -10.5 °C 34533.8 hPa Calm   18.2 km/h 66 % 0 mm
17:27 -6.8 °C -10.7 °C 34533.8 hPa Calm   18.2 km/h 64 % 0 mm
17:32 -6.7 °C -10.7 °C 34533.8 hPa Calm   7.7 km/h 63 % 0 mm
17:37 -6.5 °C -10.6 °C 34533.8 hPa Calm   7.7 km/h 63 % 0 mm
17:42 -6.3 °C -10.5 °C 34533.8 hPa Calm   7.7 km/h 62 % 0 mm
17:47 -6.2 °C -10.4 °C 34533.8 hPa Calm   7.7 km/h 62 % 0 mm
17:52 -6.2 °C -10.6 °C 34533.8 hPa Calm   7.7 km/h 61 % 0 mm
17:57 -6 °C -10.3 °C 34533.8 hPa Calm   5.1 km/h 61 % 0 mm
18:02 -6.1 °C -10.1 °C 34533.8 hPa Calm   5.1 km/h 63 % 0 mm
18:07 -6.3 °C -10.7 °C 34533.8 hPa Calm   5.1 km/h 60 % 0 mm
18:12 -6.1 °C -10.6 °C 34533.8 hPa NE 5.1 km/h 5.1 km/h 60 % 0 mm
18:17 -5.8 °C -10.9 °C 34533.8 hPa ENE 2.6 km/h 5.1 km/h 56 % 0 mm
18:22 -5.7 °C -10.9 °C 34533.8 hPa Calm   18.2 km/h 55 % 0 mm
18:27 -5.7 °C -10.9 °C 34533.8 hPa Calm   18.2 km/h 55 % 0 mm
18:32 -5.9 °C -10.8 °C 34533.8 hPa Calm   18.2 km/h 57 % 0 mm
18:37 -6.1 °C -10.9 °C 34533.8 hPa Calm   10.3 km/h 58 % 0 mm
18:42 -6.3 °C -10.7 °C 34533.8 hPa Calm   7.7 km/h 60 % 0 mm
18:47 -6.2 °C -10.7 °C 34533.8 hPa SSW 2.6 km/h 7.7 km/h 60 % 0 mm
18:52 -6.2 °C -10.8 °C 34533.8 hPa East 5.1 km/h 25.9 km/h 59 % 0 mm
18:57 -6.3 °C -10.9 °C 34533.8 hPa ENE 7.7 km/h 25.9 km/h 59 % 0 mm
19:02 -6.5 °C -11.4 °C 34544 hPa NNE 7.7 km/h 25.9 km/h 57 % 0 mm
19:07 -6.6 °C -10.7 °C 34544 hPa Calm   12.9 km/h 63 % 0 mm
19:12 -6.6 °C -10.9 °C 34544 hPa Calm   12.9 km/h 61 % 0 mm
19:17 -6.7 °C -10.8 °C 34544 hPa Calm   7.7 km/h 63 % 0 mm
19:22 -6.8 °C -10.8 °C 34544 hPa Calm   7.7 km/h 63 % 0 mm
19:27 -7 °C -10.5 °C 34544 hPa Calm   5.1 km/h 67 % 0 mm
19:32 -7 °C -10.6 °C 34544 hPa Calm   5.1 km/h 66 % 0 mm
19:37 -6.9 °C -10.6 °C 34544 hPa Calm   2.6 km/h 66 % 0 mm
19:42 -6.9 °C -10.4 °C 34554.1 hPa Calm   2.6 km/h 67 % 0 mm
19:47 -6.9 °C -10.3 °C 34554.1 hPa Calm   2.6 km/h 68 % 0 mm
19:52 -7.1 °C -10.4 °C 34554.1 hPa Calm     68 % 0 mm
19:57 -7.2 °C -10.4 °C 34554.1 hPa Calm     69 % 0 mm
20:02 -7.2 °C -10.6 °C 34554.1 hPa Calm   2.6 km/h 68 % 0 mm
20:07 -7.3 °C -10.6 °C 34554.1 hPa Calm   2.6 km/h 68 % 0 mm
20:12 -7.3 °C -10.3 °C 34567.7 hPa Calm   2.6 km/h 71 % 0 mm
20:17 -7.6 °C -10.3 °C 34567.7 hPa NE 2.6 km/h 2.6 km/h 73 % 0 mm
20:22 -7.9 °C -10.6 °C 34567.7 hPa ENE 2.6 km/h 10.3 km/h 73 % 0 mm
20:27 -8.1 °C -10.6 °C 34567.7 hPa NE 2.6 km/h 10.3 km/h 75 % 0 mm
20:32 -8.2 °C -10.6 °C 34577.8 hPa Calm   10.3 km/h 76 % 0 mm
20:37 -8.2 °C -10.5 °C 34577.8 hPa Calm   10.3 km/h 77 % 0 mm
20:42 -8.3 °C -10.6 °C 34577.8 hPa Calm   5.1 km/h 77 % 0 mm
20:47 -8.3 °C -10.4 °C 34577.8 hPa Calm   2.6 km/h 78 % 0 mm
20:52 -8.4 °C -10.8 °C 34591.4 hPa Calm   2.6 km/h 76 % 0 mm
20:57 -8.4 °C -11 °C 34591.4 hPa Calm   15.6 km/h 74 % 0 mm
21:02 -8.4 °C -11 °C 34591.4 hPa Calm   15.6 km/h 74 % 0 mm
21:07 -8.4 °C -10.8 °C 34591.4 hPa Calm   15.6 km/h 76 % 0 mm
21:12 -8.5 °C -10.8 °C 34591.4 hPa Calm   5.1 km/h 77 % 0 mm
21:22 -8.6 °C -10.9 °C 34591.4 hPa Calm   10.3 km/h 76 % 0 mm
21:27 -8.7 °C -10.8 °C 34591.4 hPa NE 2.6 km/h 10.3 km/h 78 % 0 mm
21:32 -8.8 °C -11 °C 34591.4 hPa Calm   10.3 km/h 77 % 0 mm
21:37 -8.8 °C -10.9 °C 34591.4 hPa Calm   10.3 km/h 78 % 0 mm
21:42 -8.9 °C -10.9 °C 34601.5 hPa NE 2.6 km/h 10.3 km/h 79 % 0 mm
21:47 -9 °C -10.9 °C 34601.5 hPa Calm   10.3 km/h 80 % 0 mm
21:52 -9.1 °C -10.9 °C 34601.5 hPa Calm   5.1 km/h 80 % 0 mm
21:57 -9.1 °C -10.9 °C 34601.5 hPa Calm   5.1 km/h 81 % 0 mm
22:02 -9.2 °C -10.9 °C 34611.7 hPa Calm   2.6 km/h 82 % 0 mm
22:07 -9.3 °C -10.9 °C 34611.7 hPa Calm   2.6 km/h 83 % 0 mm
22:12 -9.3 °C -10.9 °C 34611.7 hPa Calm   2.6 km/h 83 % 0 mm
22:17 -9.4 °C -10.9 °C 34611.7 hPa Calm   2.6 km/h 84 % 0 mm
22:22 -9.4 °C -10.9 °C 34611.7 hPa NE 5.1 km/h 5.1 km/h 84 % 0 mm
22:27 -9.3 °C -10.8 °C 34625.2 hPa Calm   7.7 km/h 84 % 0 mm
22:32 -9.3 °C -10.8 °C 34625.2 hPa Calm   7.7 km/h 84 % 0 mm
22:37 -9.3 °C -10.7 °C 34625.2 hPa Calm   7.7 km/h 85 % 0 mm
22:42 -9.4 °C -10.8 °C 34625.2 hPa Calm   5.1 km/h 85 % 0 mm
22:47 -9.4 °C -10.8 °C 34625.2 hPa Calm   7.7 km/h 85 % 0 mm
22:52 -9.4 °C -10.8 °C 34625.2 hPa Calm   7.7 km/h 85 % 0 mm
22:57 -9.4 °C -10.8 °C 34625.2 hPa Calm   7.7 km/h 85 % 0 mm
23:02 -9.5 °C -10.8 °C 34625.2 hPa Calm   7.7 km/h 86 % 0 mm
23:12 -9.6 °C -10.7 °C 34625.2 hPa NE 2.6 km/h 7.7 km/h 87 % 0 mm
23:17 -9.6 °C -10.7 °C 34635.4 hPa Calm   7.7 km/h 87 % 0 mm
23:27 -9.6 °C -10.8 °C 34635.4 hPa NE 5.1 km/h 5.1 km/h 87 % 0 mm
23:32 -9.6 °C -10.9 °C 34635.4 hPa ENE 2.6 km/h 7.7 km/h 86 % 0 mm
23:37 -9.6 °C -10.8 °C 34635.4 hPa Calm   7.7 km/h 87 % 0 mm
23:42 -9.7 °C -10.8 °C 34635.4 hPa Calm   7.7 km/h 87 % 0 mm
23:47 -9.7 °C -10.8 °C 34635.4 hPa NE 2.6 km/h 7.7 km/h 87 % 0 mm
23:52 -9.7 °C -10.8 °C 34635.4 hPa Calm   7.7 km/h 88 % 0 mm
23:57 -9.7 °C -10.8 °C 34635.4 hPa East 2.6 km/h 7.7 km/h 88 % 0 mm
Meteo18
Compliments of Weather Underground - 4 mb

Script developed by  Jim McMurry - jmcmurry@mwt.net Adapted for the template by  Wim van der Kuil - Leuven-Template.eu

You find our weather info also at:

European Weather Network

Weather Underground

Equipment we use:

Weather-station
Davis Vue

Weather-program
Meteobridge

Weather-server
Raspberry PI 2 B+

Provider
1 and 1

Davis Vue

Meteobridge

Raspberry PI 2 B+

1 and 1